This demonstration page uses our WeatherBlox Daily Observations layout. Learn more.

Left ArrowRight Arrow

53.62937, 11.41316

Hourly Observations for April 19, 2015

Temp ( °F °C ) Dew Point ( °F °C ) Humidity (%) Winds ( mph kmh ) Pressure ( in mb ) Visibility ( mi km ) Precip ( " mm )
6:20 am 06:20 Mostly Sunny 32 0 32 0 100 100 VRB 1 2 30.18 1022 7 11 N/A
6:50 am 06:50 Mostly Cloudy 34 1 32 0 93 93 VRB 2 4 30.18 1022 5 8 N/A
7:20 am 07:20 Cloudy 36 2 36 2 100 100 W 3 6 30.18 1022 30 48 N/A
7:50 am 07:50 Mostly Cloudy 39 4 37 3 93 93 W 5 7 30.21 1023 30 48 N/A
8:20 am 08:20 Partly Cloudy 41 5 36 2 81 81 WNW 5 7 30.21 1023 30 48 N/A
8:50 am 08:50 Mostly Sunny 41 5 36 2 81 81 VRB 2 4 30.21 1023 30 48 N/A
9:20 am 09:20 Mostly Sunny 43 6 37 3 81 81 SSW 3 6 30.21 1023 7 11 N/A
9:50 am 09:50 Mostly Sunny 45 7 36 2 71 71 VRB 2 4 30.21 1023 7 11 N/A
10:20 am 10:20 Mostly Sunny 46 8 36 2 66 66 WSW 5 7 30.21 1023 7 11 N/A
10:50 am 10:50 Mostly Sunny 48 9 36 2 62 62 WSW 6 9 30.21 1023 7 11 N/A
11:20 am 11:20 Mostly Sunny 48 9 34 1 58 58 WSW 6 9 30.21 1023 7 11 N/A
11:50 am 11:50 Mostly Sunny 52 11 36 2 54 54 VRB 3 6 30.21 1023 7 11 N/A
12:20 pm 12:20 Mostly Sunny 52 11 32 0 47 47 S 5 7 30.21 1023 7 11 N/A
12:50 pm 12:50 Mostly Sunny 54 12 34 1 47 47 SSW 6 9 30.21 1023 7 11 N/A
1:20 pm 13:20 Mostly Sunny 55 13 32 0 41 41 N 5 7 30.21 1023 7 11 N/A
1:50 pm 13:50 Mostly Sunny 55 13 32 0 41 41 VRB 5 7 30.21 1023 7 11 N/A
2:20 pm 14:20 Mostly Sunny 55 13 32 0 41 41 NW 8 13 30.24 1024 7 11 N/A
2:50 pm 14:50 Mostly Sunny 57 14 30 -1 36 36 N 6 9 30.24 1024 7 11 N/A
3:20 pm 15:20 Mostly Sunny 57 14 32 0 39 39 VRB 3 6 30.21 1023 7 11 N/A
3:50 pm 15:50 Mostly Sunny 57 14 30 -1 36 36 VRB 2 4 30.21 1023 7 11 N/A
4:20 pm 16:20 Mostly Sunny 59 15 30 -1 34 34 N 5 7 30.21 1023 7 11 N/A
4:50 pm 16:50 Mostly Sunny 59 15 32 0 36 36 VRB 5 7 30.21 1023 7 11 N/A
5:20 pm 17:20 Mostly Sunny 59 15 32 0 36 36 NW 8 13 30.21 1023 7 11 N/A
5:50 pm 17:50 Mostly Sunny 59 15 32 0 36 36 NNE 7 11 30.21 1023 7 11 N/A
6:20 pm 18:20 Mostly Sunny 57 14 32 0 39 39 NNW 5 7 30.21 1023 7 11 N/A
6:50 pm 18:50 Mostly Sunny 57 14 41 5 55 55 N 10 17 30.21 1023 7 11 N/A

Powered by AerisWeather